Le nostre stazioni meteo in Italia

Pubblicità
Il mio iltempo24.it
Sciacca, Italia (16436): Temperatura & dewpoint: 10.02.2019 07:00:00 - 16.02.2019 07:00:00 (CET)Sciacca, Italia (16436): velocità del vento: 10.02.2019 07:00:00 - 16.02.2019 07:00:00 (CET)Sciacca, Italia (16436): direzione del vento: 10.02.2019 07:00:00 - 16.02.2019 07:00:00 (CET)Sciacca, Italia (16436): reduced air pressure: 10.02.2019 07:00:00 - 16.02.2019 07:00:00 (CET)Sciacca, Italia (16436): precipitazioni: 10.02.2019 07:00:00 - 16.02.2019 07:00:00 (CET)
Data & Tempo tt [°C] td [°C] ff [km/h] ff [kn] dd ppp [hPa] rr [mm]
16.02.2019 07:00:00 - - - - - - -
16.02.2019 06:00:00 7,4 4,1 5 3 NNO 1038,1 -
16.02.2019 05:00:00 5,4 3,0 0 0 N 1038,0 -
16.02.2019 04:00:00 5,5 3,1 0 0 N 1037,5 -
16.02.2019 03:00:00 6,2 2,0 0 0 N 1037,3 -
16.02.2019 02:00:00 7,5 1,9 2 1 ESE 1036,9 -
16.02.2019 01:00:00 8,9 2,6 16 9 ENE 1036,2 -
16.02.2019 00:00:00 7,9 5,5 5 3 NNE 1035,9 -
15.02.2019 23:00:00 7,8 4,9 0 0 N 1035,2 -
15.02.2019 22:00:00 9,6 4,5 5 3 ESE 1035,4 -
15.02.2019 21:00:00 8,4 2,3 0 0 N 1034,4 -
15.02.2019 20:00:00 10,3 4,2 2 1 NNE 1034,0 -
15.02.2019 19:00:00 11,8 4,9 13 7 NNE 1033,7 -
15.02.2019 18:00:00 13,0 8,4 21 11 NO 1032,9 -
15.02.2019 17:00:00 14,5 7,2 18 10 NO 1032,1 -
15.02.2019 16:00:00 15,5 6,9 16 9 NNO 1032,5 -
15.02.2019 15:00:00 16,1 8,3 13 7 NO 1033,1 -
15.02.2019 14:00:00 16,2 7,9 13 7 NNO 1033,8 -
15.02.2019 13:00:00 16,3 8,7 9 5 NO 1035,0 -
15.02.2019 12:00:00 15,2 7,9 0 0 N 1036,7 -
15.02.2019 11:00:00 13,5 7,4 0 0 N 1037,6 -
15.02.2019 10:00:00 12,4 6,8 2 1 S 1038,1 -
15.02.2019 09:00:00 9,7 7,8 0 0 N 1038,6 -
15.02.2019 08:00:00 6,4 4,9 0 0 N 1039,1 -
15.02.2019 07:00:00 5,8 0,5 0 0 N 1038,8 -
15.02.2019 06:00:00 5,8 0,5 0 0 N 1039,4 -
15.02.2019 05:00:00 8,9 2,6 11 6 N 1039,3 -
15.02.2019 04:00:00 5,2 1,3 0 0 N 1039,5 -
15.02.2019 03:00:00 4,7 1,0 0 0 N 1039,6 -
15.02.2019 02:00:00 4,9 -0,2 0 0 N 1039,5 -
15.02.2019 01:00:00 6,8 1,2 4 2 NE 1039,5 -
15.02.2019 00:00:00 6,7 0,5 0 0 N 1040,0 -
14.02.2019 23:00:00 9,5 1,6 11 6 N 1039,9 -
14.02.2019 22:00:00 9,7 2,5 13 7 N 1039,9 -
14.02.2019 21:00:00 9,8 2,3 16 9 N 1040,0 -
14.02.2019 20:00:00 9,6 1,9 13 7 N 1039,9 -
14.02.2019 19:00:00 10,3 2,3 13 7 N 1039,9 -
14.02.2019 18:00:00 11,7 -1,2 13 7 NNE 1039,2 -
14.02.2019 17:00:00 13,2 -1,3 16 9 NE 1039,1 -
14.02.2019 16:00:00 13,7 5,5 16 9 NNO 1039,3 -
14.02.2019 15:00:00 14,9 -0,5 18 10 NNE 1039,0 -
14.02.2019 14:00:00 15,3 4,0 8 4 SSE 1039,6 -
14.02.2019 13:00:00 15,2 4,2 11 6 ENE 1040,0 -
14.02.2019 12:00:00 13,7 3,7 15 8 NE 1041,2 -
14.02.2019 11:00:00 12,0 3,9 16 9 NNO 1041,5 -
14.02.2019 10:00:00 10,9 3,1 13 7 O 1041,8 -
14.02.2019 09:00:00 9,3 2,1 8 4 N 1042,7 -
14.02.2019 08:00:00 7,5 1,9 4 2 N 1042,6 -
14.02.2019 07:00:00 6,1 0,1 0 0 N 1042,0 0,0
14.02.2019 06:00:00 6,7 0,3 9 5 N 1040,7 -
14.02.2019 05:00:00 7,2 -0,4 15 8 NNE 1040,7 -
14.02.2019 04:00:00 7,9 -0,7 21 11 NNE 1040,0 -
14.02.2019 03:00:00 8,2 -1,4 24 13 NNE 1040,3 -
14.02.2019 02:00:00 8,6 1,0 28 15 NNE 1040,2 -
14.02.2019 01:00:00 8,7 2,4 15 8 N 1040,4 0,0
14.02.2019 00:00:00 8,1 2,1 8 4 NO 1040,6 -
13.02.2019 23:00:00 7,9 1,9 - - - 1040,2 -
13.02.2019 22:00:00 6,8 1,8 4 2 ESE 1040,2 -
13.02.2019 21:00:00 8,2 2,2 - - - 1039,9 -
13.02.2019 20:00:00 8,4 1,0 - - - 1039,5 -
13.02.2019 19:00:00 8,5 0,6 9 5 NNO 1039,5 0,0
13.02.2019 18:00:00 8,9 -0,5 2 1 N 1038,6 -
13.02.2019 17:00:00 10,4 -1,1 15 8 NNE 1037,9 -
13.02.2019 16:00:00 10,7 -0,9 29 16 N 1037,1 -
13.02.2019 15:00:00 11,6 -1,0 21 11 N 1037,3 -
13.02.2019 14:00:00 11,0 -0,3 18 10 NNE 1038,2 -
13.02.2019 13:00:00 11,6 0,9 21 11 NNE 1038,8 -
13.02.2019 12:00:00 11,4 1,8 24 13 N 1039,4 -
13.02.2019 11:00:00 11,0 2,5 13 7 N 1039,3 -
13.02.2019 10:00:00 9,6 3,0 8 4 SSE 1039,5 -
13.02.2019 09:00:00 8,4 4,9 8 4 SSE 1039,4 -
13.02.2019 08:00:00 7,2 3,6 0 0 N 1039,4 -
13.02.2019 07:00:00 6,6 3,2 5 3 NNO 1039,0 0,0
13.02.2019 06:00:00 6,6 2,2 8 4 NO 1038,6 -
13.02.2019 05:00:00 6,8 2,4 4 2 O 1038,2 -
13.02.2019 04:00:00 6,4 4,4 15 8 O 1038,0 -
13.02.2019 03:00:00 7,2 3,0 - - - 1037,8 -
13.02.2019 02:00:00 7,8 4,2 - - - 1037,8 -
13.02.2019 01:00:00 8,9 2,6 - - - 1037,6 0,0
13.02.2019 00:00:00 7,7 4,2 - - - 1037,5 -
12.02.2019 23:00:00 6,5 3,4 - - - 1037,1 -
12.02.2019 22:00:00 7,4 3,0 - - - 1036,6 -
12.02.2019 21:00:00 6,3 2,9 - - - 1036,5 -
12.02.2019 20:00:00 8,7 3,1 - - - 1036,1 -
12.02.2019 19:00:00 9,0 3,1 8 4 ONO 1035,4 0,0
12.02.2019 18:00:00 9,9 0,9 5 3 NNO 1034,5 -
12.02.2019 17:00:00 11,1 1,2 2 1 O 1033,8 -
12.02.2019 16:00:00 10,9 2,1 15 8 NNE 1032,7 -
12.02.2019 15:00:00 11,5 2,2 15 8 N 1031,9 -
12.02.2019 14:00:00 12,8 4,4 13 7 NNE 1031,6 -
12.02.2019 13:00:00 11,5 1,9 13 7 N 1032,1 -
12.02.2019 12:00:00 11,3 4,2 4 2 SSE 1031,9 -
12.02.2019 11:00:00 11,5 6,2 - - - 1031,8 -
12.02.2019 10:00:00 7,9 6,5 13 7 ONO 1031,7 -
12.02.2019 09:00:00 6,8 5,6 0 0 N 1031,4 -
12.02.2019 08:00:00 7,9 3,3 8 4 NNO 1031,1 -
12.02.2019 07:00:00 7,0 4,8 11 6 NO 1029,7 0,0
12.02.2019 06:00:00 6,8 4,6 - - - 1029,6 -
12.02.2019 05:00:00 6,9 5,4 11 6 N 1029,6 -
12.02.2019 04:00:00 7,7 3,1 9 5 OSO 1029,3 -
12.02.2019 03:00:00 8,9 2,6 11 6 O 1029,7 -
12.02.2019 02:00:00 9,2 5,9 - - - 1029,6 -
12.02.2019 01:00:00 8,7 5,8 - - - 1029,6 0,0
12.02.2019 00:00:00 9,6 6,6 - - - 1029,6 -
11.02.2019 23:00:00 9,4 7,1 5 3 S 1029,2 -
11.02.2019 22:00:00 10,1 6,9 - - - 1029,4 -
11.02.2019 21:00:00 10,5 5,2 18 10 O 1029,2 -
11.02.2019 20:00:00 10,8 7,1 15 8 O 1028,9 -
11.02.2019 19:00:00 11,4 9,1 18 10 NNE 1028,8 0,0
11.02.2019 18:00:00 12,2 6,0 21 11 OSO 1028,0 -
11.02.2019 17:00:00 13,1 8,3 29 16 O 1027,6 -
11.02.2019 16:00:00 14,6 10,4 22 12 O 1027,2 -
11.02.2019 15:00:00 15,0 7,0 26 14 O 1027,4 -
11.02.2019 14:00:00 16,1 5,0 34 18 O 1027,7 -
11.02.2019 13:00:00 15,9 9,3 24 13 OSO 1028,1 0,0
11.02.2019 12:00:00 15,6 12,7 26 14 O 1029,1 -
11.02.2019 11:00:00 14,4 12,9 26 14 O 1029,4 -
11.02.2019 10:00:00 13,6 12,5 22 12 O 1030,0 -
11.02.2019 09:00:00 12,0 11,8 - - - 1030,4 -
11.02.2019 08:00:00 10,0 9,8 - - - 1030,4 -
11.02.2019 07:00:00 9,6 9,3 - - - 1030,5 0,0
11.02.2019 06:00:00 9,5 9,2 - - - 1030,5 -
11.02.2019 05:00:00 9,5 9,0 - - - 1030,5 -
11.02.2019 04:00:00 9,7 9,2 - - - 1031,1 -
11.02.2019 03:00:00 9,1 8,5 - - - 1031,9 -
11.02.2019 02:00:00 9,7 9,1 - - - 1032,5 -
11.02.2019 01:00:00 9,7 9,1 - - - 1032,9 0,0
11.02.2019 00:00:00 10,0 9,4 - - - 1033,3 -
10.02.2019 23:00:00 9,7 9,2 - - - 1033,4 -
10.02.2019 22:00:00 9,7 9,2 - - - 1033,9 -
10.02.2019 21:00:00 9,7 9,1 - - - 1034,2 -
10.02.2019 20:00:00 10,1 9,5 4 2 NNE 1034,1 -
10.02.2019 19:00:00 10,5 9,6 0 0 N 1034,2 0,0
10.02.2019 18:00:00 11,6 10,2 0 0 N 1034,0 -
10.02.2019 17:00:00 13,1 11,5 0 0 N 1034,0 -
10.02.2019 16:00:00 14,5 12,8 2 1 SE 1034,4 -
10.02.2019 15:00:00 14,3 12,5 0 0 N 1034,7 -
10.02.2019 14:00:00 13,9 12,3 0 0 N 1035,2 -
10.02.2019 13:00:00 14,7 12,5 5 3 SSO 1035,8 0,0
10.02.2019 12:00:00 14,4 12,6 8 4 SSO 1036,5 -
10.02.2019 11:00:00 13,7 12,2 2 1 SSO 1037,0 -
10.02.2019 10:00:00 12,1 11,0 - - - 1037,6 -
10.02.2019 09:00:00 10,9 10,3 8 4 ONO 1037,9 -
10.02.2019 08:00:00 8,9 8,6 9 5 NNO 1037,5 -
10.02.2019 07:00:00 7,5 7,4 0 0 N 1037,2 0,0

tt = Temperatura
td = dewpoint
ff = velocità del vento
dd = direzione del vento
ppp = reduced air pressure
rr = precipitazioni

Stazioni seguenti

WeatherPro
AMSI
MeteoEarth